STARLINK-4645 (53743 NORAD) Tracking and Keplerian Element Data

This shows tracking and keplerian element data for the satellite.

Feedback or suggestion? Click here.




ElementValue
Catalog53743
NameSTARLINK-4645
Epoch Orbit1199
Epoch Day325.33334491
Epoch Year2022
RAAN270.7615
Inclination53.2159
Eccentricity0.0001661
Argument of Perigee49.1776
Mean Anonmoly9.7373
Mean Motion15.08819945
Decay Rate0.00029839
L11 53743U 22107AV 22325.33334491 .00029839 00000+0 18860-2 0 9993
L22 53743 53.2159 270.7615 0001661 49.1776 9.7373 15.08819945 11994



Live tracking and technical data element details for STARLINK-4645 (NORAD 53743). STARLINK-4645 can be tracked NOW for your location showing map with azimuth and elevation plus other details from your city location.







IsCatalogInMostPopularTable: catalog: 53743, numindb: -1

Insert: records affected: 1


GetName: 53743 STARLINK-4645

Hit Count: inserted at: Mon, 28 Nov 2022 05:21:30 GMT